sat.trackr.live / text

‹ back to catalog

ONEWEB-0117

NORAD 47263 · 2020-100F

PAYLOAD ACTIVE UNKNOWN

§ Identity

Operator
Country
UK
Launch date
2020-12-18
Launch site
VOSTO
Launch vehicle
Mass (kg)
RCS (m²)

Purposes: comms

External: N2YO · Heavens-Above · Gunter

§ Orbital elements

Epoch: 2026-05-25T02:55:57.680832Z

Period
109.72 min
Inclination
87.8958°
Eccentricity
0.0001757
Mean motion
13.12440607 rev/d
Perigee alt
1,212.4 km
Apogee alt
1,215.1 km
Semi-major
7,591.9 km
B*
8.3822e-4
RAAN
355.2369°
Arg perigee
84.9218°
Mean anomaly
275.2111°
Rev number
26,150

§ Raw data

ONEWEB-01171 47263U 20100F   26145.12219538  .00000314  00000+0  83822-3 0  99972 47263  87.8958 355.2369 0001757  84.9218 275.2111 13.12440607261505

JSON: /api/v1/satellites/47263 · /tle

For live sub-satellite position, see the globe view (requires WebGL).

§ Visibility from observer

Set your observer location to see the next 7 days of passes ≥ 10°. The values pass through the URL so the page stays shareable.

No JS? Fill the form by hand. The geolocation button needs JavaScript.